Location: El Álamo
(40.2307°N, 3.9945°W)
Time: 04:29:28
(UTC+00:00)

Cosmos 1125 Rocket - Pass Details

Date: 19 May 2025
Orbit: 753 x 776 km, 74.0° (Epoch: 23 June)

Event Time Altitude Azimuth Distance (km) Brightness Sun altitude
Rises 21:04:07 0° 346° (NNW) 3,264 7.8 -15.5°
Reaches altitude 10° 21:06:37 10° 353° (N) 2,333 6.8 -15.9°
Maximum altitude 21:11:43 46° 66° (ENE) 1,033 4.0 -16.6°
Enters shadow 21:14:07 28° 123° (ESE) 1,428 4.3 -16.9°
